Time,TemperatureF,DewpointF,PressureIn,WindDirection,WindDirectionDegrees,WindSpeedMPH,WindSpeedGustMPH,Humidity,HourlyPrecipIn,Conditions,Clouds,dailyrainin,SoftwareType,DateUTC
2015-08-31 00:00:00,63.7,61.3,30.00,North,5,0.0,0.0,92,0.00,,,0.00,Wunderground v.1.15,2015-08-31 04:00:00,
2015-08-31 00:06:00,63.6,61.5,30.00,North,5,0.0,0.0,93,0.00,,,0.00,Wunderground v.1.15,2015-08-31 04:06:00,
2015-08-31 00:12:00,63.5,61.4,30.00,North,5,0.0,0.0,93,0.00,,,0.00,Wunderground v.1.15,2015-08-31 04:12:00,
2015-08-31 00:18:00,63.4,61.3,30.00,North,5,0.0,0.0,93,0.00,,,0.00,Wunderground v.1.15,2015-08-31 04:18:00,
2015-08-31 00:23:00,63.3,61.2,30.00,North,5,0.0,0.0,93,0.00,,,0.00,Wunderground v.1.15,2015-08-31 04:23:00,
2015-08-31 00:29:00,63.2,61.1,30.00,North,5,0.0,0.0,93,0.00,,,0.00,Wunderground v.1.15,2015-08-31 04:29:00,
2015-08-31 00:35:00,63.2,61.1,29.99,North,5,0.0,0.0,93,0.00,,,0.00,Wunderground v.1.15,2015-08-31 04:35:00,
2015-08-31 00:41:00,63.1,61.0,29.99,North,5,0.0,0.0,93,0.00,,,0.00,Wunderground v.1.15,2015-08-31 04:41:00,
2015-08-31 00:46:00,63.1,61.0,30.00,North,5,0.0,0.0,93,0.00,,,0.00,Wunderground v.1.15,2015-08-31 04:46:00,
2015-08-31 00:52:00,63.1,61.0,30.00,North,5,0.0,0.0,93,0.00,,,0.00,Wunderground v.1.15,2015-08-31 04:52:00,
2015-08-31 00:58:00,62.9,60.8,30.00,North,5,0.0,0.0,93,0.00,,,0.00,Wunderground v.1.15,2015-08-31 04:58:00,
2015-08-31 01:04:00,62.8,60.7,30.00,North,5,0.0,0.0,93,0.00,,,0.00,Wunderground v.1.15,2015-08-31 05:04:00,
2015-08-31 01:10:00,62.6,60.5,30.00,North,5,0.0,0.0,93,0.00,,,0.00,Wunderground v.1.15,2015-08-31 05:10:00,
2015-08-31 01:16:00,62.6,60.5,30.00,North,5,0.0,0.0,93,0.00,,,0.00,Wunderground v.1.15,2015-08-31 05:16:00,
2015-08-31 01:22:00,62.5,60.4,30.00,North,5,0.0,0.0,93,0.00,,,0.00,Wunderground v.1.15,2015-08-31 05:22:00,
2015-08-31 01:28:00,62.5,60.7,29.99,North,5,0.0,0.0,94,0.00,,,0.00,Wunderground v.1.15,2015-08-31 05:28:00,
2015-08-31 01:34:00,62.6,60.8,29.99,North,5,0.0,0.0,94,0.00,,,0.00,Wunderground v.1.15,2015-08-31 05:34:00,
2015-08-31 01:39:00,62.6,60.8,29.99,North,5,0.0,0.0,94,0.00,,,0.00,Wunderground v.1.15,2015-08-31 05:39:00,
2015-08-31 01:45:00,62.7,60.9,29.99,North,5,0.0,0.0,94,0.00,,,0.00,Wunderground v.1.15,2015-08-31 05:45:00,
2015-08-31 01:51:00,62.8,61.0,29.99,North,5,0.0,0.0,94,0.00,,,0.00,Wunderground v.1.15,2015-08-31 05:51:00,
2015-08-31 01:57:00,62.8,61.0,29.98,North,5,0.0,0.0,94,0.00,,,0.00,Wunderground v.1.15,2015-08-31 05:57:00,
2015-08-31 02:03:00,62.7,60.9,29.98,North,5,0.0,0.0,94,0.00,,,0.00,Wunderground v.1.15,2015-08-31 06:03:00,
2015-08-31 02:09:00,62.8,61.3,29.98,North,5,0.0,0.0,95,0.00,,,0.00,Wunderground v.1.15,2015-08-31 06:09:00,
2015-08-31 02:15:00,62.9,61.4,29.98,North,5,0.0,0.0,95,0.00,,,0.00,Wunderground v.1.15,2015-08-31 06:15:00,
2015-08-31 02:20:00,63.1,61.6,29.98,North,5,0.0,0.0,95,0.00,,,0.00,Wunderground v.1.15,2015-08-31 06:20:00,
2015-08-31 02:26:00,63.2,61.7,29.98,North,5,0.0,0.0,95,0.00,,,0.00,Wunderground v.1.15,2015-08-31 06:26:00,
2015-08-31 02:32:00,63.2,61.7,29.98,North,5,0.0,0.0,95,0.00,,,0.00,Wunderground v.1.15,2015-08-31 06:32:00,
2015-08-31 02:38:00,63.1,61.6,29.98,North,5,0.0,0.0,95,0.00,,,0.00,Wunderground v.1.15,2015-08-31 06:38:00,
2015-08-31 02:43:00,63.0,61.5,29.98,North,5,0.0,0.0,95,0.00,,,0.00,Wunderground v.1.15,2015-08-31 06:43:00,
2015-08-31 02:48:00,63.0,61.5,29.98,North,5,0.0,0.0,95,0.00,,,0.00,Wunderground v.1.15,2015-08-31 06:48:00,
2015-08-31 02:54:00,62.9,61.4,29.98,North,5,0.0,0.0,95,0.00,,,0.00,Wunderground v.1.15,2015-08-31 06:54:00,
2015-08-31 03:00:00,62.7,61.2,29.98,North,5,0.0,0.0,95,0.00,,,0.00,Wunderground v.1.15,2015-08-31 07:00:00,
2015-08-31 03:05:00,62.6,61.1,29.98,North,5,0.0,0.0,95,0.00,,,0.00,Wunderground v.1.15,2015-08-31 07:05:00,
2015-08-31 03:11:00,62.6,61.1,29.98,North,5,0.0,0.0,95,0.00,,,0.00,Wunderground v.1.15,2015-08-31 07:11:00,
2015-08-31 03:17:00,62.6,61.1,29.98,North,5,0.0,0.0,95,0.00,,,0.00,Wunderground v.1.15,2015-08-31 07:17:00,
2015-08-31 03:23:00,62.6,61.1,29.98,North,5,0.0,0.0,95,0.00,,,0.00,Wunderground v.1.15,2015-08-31 07:23:00,
2015-08-31 03:28:00,62.7,61.2,29.98,North,5,0.0,0.0,95,0.00,,,0.00,Wunderground v.1.15,2015-08-31 07:28:00,
2015-08-31 03:34:00,62.7,61.2,29.98,North,5,0.0,0.0,95,0.00,,,0.00,Wunderground v.1.15,2015-08-31 07:34:00,
2015-08-31 03:40:00,62.7,61.2,29.98,North,5,0.0,0.0,95,0.00,,,0.00,Wunderground v.1.15,2015-08-31 07:40:00,
2015-08-31 03:46:00,62.7,61.2,29.98,North,5,0.0,0.0,95,0.00,,,0.00,Wunderground v.1.15,2015-08-31 07:46:00,
2015-08-31 03:52:00,62.7,61.2,29.98,North,5,0.0,0.0,95,0.00,,,0.00,Wunderground v.1.15,2015-08-31 07:52:00,
2015-08-31 03:57:00,62.7,61.2,29.98,North,5,0.0,0.0,95,0.00,,,0.00,Wunderground v.1.15,2015-08-31 07:57:00,
2015-08-31 04:03:00,62.6,61.1,29.98,North,5,0.0,0.0,95,0.00,,,0.00,Wunderground v.1.15,2015-08-31 08:03:00,
2015-08-31 04:10:00,62.5,61.0,29.98,North,5,0.0,0.0,95,0.00,,,0.00,Wunderground v.1.15,2015-08-31 08:10:00,
2015-08-31 04:16:00,62.5,61.0,29.98,North,5,0.0,0.0,95,0.00,,,0.00,Wunderground v.1.15,2015-08-31 08:16:00,
2015-08-31 04:22:00,62.3,60.8,29.98,North,5,0.0,0.0,95,0.00,,,0.00,Wunderground v.1.15,2015-08-31 08:22:00,
2015-08-31 04:27:00,62.3,60.8,29.98,North,5,0.0,0.0,95,0.00,,,0.00,Wunderground v.1.15,2015-08-31 08:27:00,
2015-08-31 04:33:00,62.2,60.8,29.98,North,5,0.0,0.0,95,0.00,,,0.00,Wunderground v.1.15,2015-08-31 08:33:00,
2015-08-31 04:39:00,62.1,60.7,29.98,North,5,0.0,0.0,95,0.00,,,0.00,Wunderground v.1.15,2015-08-31 08:39:00,
2015-08-31 04:45:00,62.0,60.6,29.98,North,5,0.0,0.0,95,0.00,,,0.00,Wunderground v.1.15,2015-08-31 08:45:00,
2015-08-31 04:51:00,61.8,60.4,29.98,North,5,0.0,0.0,95,0.00,,,0.00,Wunderground v.1.15,2015-08-31 08:51:00,
2015-08-31 04:56:00,61.6,60.2,29.98,North,5,0.0,0.0,95,0.00,,,0.00,Wunderground v.1.15,2015-08-31 08:56:00,
2015-08-31 05:02:00,61.6,60.2,29.97,North,5,0.0,0.0,95,0.00,,,0.00,Wunderground v.1.15,2015-08-31 09:02:00,
2015-08-31 05:08:00,61.5,60.1,29.97,North,5,0.0,0.0,95,0.00,,,0.00,Wunderground v.1.15,2015-08-31 09:08:00,
2015-08-31 05:14:00,61.5,60.1,29.97,North,5,0.0,0.0,95,0.00,,,0.00,Wunderground v.1.15,2015-08-31 09:14:00,
2015-08-31 05:19:00,61.4,60.0,29.97,North,5,0.0,0.0,95,0.00,,,0.00,Wunderground v.1.15,2015-08-31 09:19:00,
2015-08-31 05:25:00,61.4,60.0,29.97,North,5,0.0,0.0,95,0.00,,,0.00,Wunderground v.1.15,2015-08-31 09:25:00,
2015-08-31 05:31:00,61.4,60.0,29.97,North,5,0.0,0.0,95,0.00,,,0.00,Wunderground v.1.15,2015-08-31 09:31:00,
2015-08-31 05:37:00,61.3,59.9,29.97,North,5,0.0,0.0,95,0.00,,,0.00,Wunderground v.1.15,2015-08-31 09:37:00,
2015-08-31 05:42:00,61.3,59.9,29.97,North,5,0.0,0.0,95,0.00,,,0.00,Wunderground v.1.15,2015-08-31 09:42:00,
2015-08-31 05:48:00,61.3,59.9,29.97,North,5,0.0,0.0,95,0.00,,,0.00,Wunderground v.1.15,2015-08-31 09:48:00,
2015-08-31 05:54:00,61.2,59.8,29.97,North,5,0.0,0.0,95,0.00,,,0.00,Wunderground v.1.15,2015-08-31 09:54:00,
2015-08-31 06:00:00,61.2,60.1,29.97,North,5,0.0,0.0,96,0.00,,,0.00,Wunderground v.1.15,2015-08-31 10:00:00,
2015-08-31 06:06:00,61.1,60.0,29.97,North,5,0.0,0.0,96,0.00,,,0.00,Wunderground v.1.15,2015-08-31 10:06:00,
2015-08-31 06:11:00,61.1,60.0,29.98,North,5,0.0,0.0,96,0.00,,,0.00,Wunderground v.1.15,2015-08-31 10:11:00,
2015-08-31 06:17:00,61.0,59.9,29.98,North,5,0.0,0.0,96,0.00,,,0.00,Wunderground v.1.15,2015-08-31 10:17:00,
2015-08-31 06:23:00,61.0,59.9,29.98,North,5,0.0,0.0,96,0.00,,,0.00,Wunderground v.1.15,2015-08-31 10:23:00,
2015-08-31 06:28:00,61.0,59.9,29.98,North,5,0.0,0.0,96,0.00,,,0.00,Wunderground v.1.15,2015-08-31 10:28:00,
2015-08-31 06:33:00,61.0,59.9,29.98,North,5,0.0,0.0,96,0.00,,,0.00,Wunderground v.1.15,2015-08-31 10:33:00,
2015-08-31 06:39:00,61.1,60.0,29.98,North,5,0.0,0.0,96,0.00,,,0.00,Wunderground v.1.15,2015-08-31 10:39:00,
2015-08-31 06:44:00,61.1,60.0,29.98,North,5,0.0,0.0,96,0.00,,,0.00,Wunderground v.1.15,2015-08-31 10:44:00,
2015-08-31 06:49:00,61.2,60.1,29.98,North,5,0.0,0.0,96,0.00,,,0.00,Wunderground v.1.15,2015-08-31 10:49:00,
2015-08-31 06:55:00,61.3,60.2,29.98,North,5,0.0,0.0,96,0.00,,,0.00,Wunderground v.1.15,2015-08-31 10:55:00,
2015-08-31 07:00:00,61.3,60.2,29.99,North,5,0.0,0.0,96,0.00,,,0.00,Wunderground v.1.15,2015-08-31 11:00:00,
2015-08-31 07:05:00,61.4,60.2,29.98,North,5,0.0,0.0,96,0.00,,,0.00,Wunderground v.1.15,2015-08-31 11:05:00,
2015-08-31 07:11:00,61.6,60.4,29.99,North,5,0.0,0.0,96,0.00,,,0.00,Wunderground v.1.15,2015-08-31 11:11:00,
2015-08-31 07:17:00,61.7,60.5,29.99,North,5,0.0,0.0,96,0.00,,,0.00,Wunderground v.1.15,2015-08-31 11:17:00,
2015-08-31 07:23:00,61.7,60.5,29.99,North,5,0.0,0.0,96,0.00,,,0.00,Wunderground v.1.15,2015-08-31 11:23:00,
2015-08-31 07:29:00,61.9,60.7,29.99,North,5,0.0,0.0,96,0.00,,,0.00,Wunderground v.1.15,2015-08-31 11:29:00,
2015-08-31 07:35:00,62.0,60.8,29.99,North,5,0.0,0.0,96,0.00,,,0.00,Wunderground v.1.15,2015-08-31 11:35:00,
2015-08-31 07:41:00,62.3,61.1,29.99,North,5,0.0,0.0,96,0.00,,,0.00,Wunderground v.1.15,2015-08-31 11:41:00,
2015-08-31 07:46:00,62.7,61.8,29.99,North,5,0.0,0.0,97,0.00,,,0.00,Wunderground v.1.15,2015-08-31 11:46:00,
2015-08-31 07:51:00,63.1,62.2,29.99,North,5,0.0,0.0,97,0.00,,,0.00,Wunderground v.1.15,2015-08-31 11:51:00,
2015-08-31 07:57:00,63.9,63.0,29.99,North,5,0.0,0.0,97,0.00,,,0.00,Wunderground v.1.15,2015-08-31 11:57:00,
2015-08-31 08:03:00,64.9,64.0,29.99,North,5,0.0,0.0,97,0.00,,,0.00,Wunderground v.1.15,2015-08-31 12:03:00,
2015-08-31 08:09:00,65.5,64.6,29.99,SSW,201,0.0,3.0,97,0.00,,,0.00,Wunderground v.1.15,2015-08-31 12:09:00,
2015-08-31 08:15:00,66.2,65.3,29.99,SSW,201,1.0,2.0,97,0.00,,,0.00,Wunderground v.1.15,2015-08-31 12:15:00,
2015-08-31 08:21:00,66.9,66.0,30.00,SSW,200,0.0,0.0,97,0.00,,,0.00,Wunderground v.1.15,2015-08-31 12:21:00,
2015-08-31 08:27:00,67.5,66.6,29.99,SSW,200,0.0,0.0,97,0.00,,,0.00,Wunderground v.1.15,2015-08-31 12:27:00,
2015-08-31 08:32:00,68.1,67.5,30.00,SSW,200,0.0,0.0,98,0.00,,,0.00,Wunderground v.1.15,2015-08-31 12:32:00,
2015-08-31 08:37:00,68.9,68.3,30.00,SW,235,0.0,0.0,98,0.00,,,0.00,Wunderground v.1.15,2015-08-31 12:37:00,
2015-08-31 08:42:00,69.3,68.7,30.00,West,281,0.0,1.0,98,0.00,,,0.00,Wunderground v.1.15,2015-08-31 12:42:00,
2015-08-31 08:47:00,69.5,68.6,30.00,West,259,0.0,3.0,97,0.00,,,0.00,Wunderground v.1.15,2015-08-31 12:47:00,
2015-08-31 08:53:00,69.8,68.9,30.00,SSW,193,1.0,2.0,97,0.00,,,0.00,Wunderground v.1.15,2015-08-31 12:53:00,
2015-08-31 08:56:00,70.0,69.1,30.00,West,279,1.0,2.0,97,0.00,,,0.00,Wunderground v.1.15,2015-08-31 12:56:00,
2015-08-31 09:01:00,70.5,69.6,30.00,SW,220,2.0,2.0,97,0.00,,,0.00,Wunderground v.1.15,2015-08-31 13:01:00,
2015-08-31 09:07:00,71.1,70.2,30.00,South,186,2.0,4.0,97,0.00,,,0.00,Wunderground v.1.15,2015-08-31 13:07:00,
2015-08-31 09:13:00,71.4,70.2,30.00,West,260,3.0,3.0,96,0.00,,,0.00,Wunderground v.1.15,2015-08-31 13:13:00,
2015-08-31 09:18:00,71.7,70.2,30.00,West,265,2.0,6.0,95,0.00,,,0.00,Wunderground v.1.15,2015-08-31 13:18:00,
2015-08-31 09:23:00,72.1,70.3,30.00,WSW,246,2.0,6.0,94,0.00,,,0.00,Wunderground v.1.15,2015-08-31 13:23:00,
2015-08-31 09:28:00,72.5,70.4,30.00,WSW,243,2.0,6.0,93,0.00,,,0.00,Wunderground v.1.15,2015-08-31 13:28:00,
2015-08-31 09:33:00,72.8,70.0,30.00,West,270,3.0,5.0,91,0.00,,,0.00,Wunderground v.1.15,2015-08-31 13:33:00,
2015-08-31 09:38:00,73.1,70.3,30.00,West,263,3.0,5.0,91,0.00,,,0.00,Wunderground v.1.15,2015-08-31 13:38:00,
2015-08-31 09:44:00,73.4,70.3,30.01,West,271,3.0,3.0,90,0.00,,,0.00,Wunderground v.1.15,2015-08-31 13:44:00,
2015-08-31 09:50:00,73.6,70.2,30.01,West,279,2.0,3.0,89,0.00,,,0.00,Wunderground v.1.15,2015-08-31 13:50:00,
2015-08-31 09:55:00,74.0,70.6,30.01,West,263,2.0,3.0,89,0.00,,,0.00,Wunderground v.1.15,2015-08-31 13:55:00,
2015-08-31 10:00:00,74.3,70.5,30.01,West,275,2.0,2.0,88,0.00,,,0.00,Wunderground v.1.15,2015-08-31 14:00:00,
2015-08-31 10:06:00,74.8,71.0,30.01,SW,223,3.0,6.0,88,0.00,,,0.00,Wunderground v.1.15,2015-08-31 14:06:00,
2015-08-31 10:12:00,75.3,70.8,30.01,SW,219,3.0,4.0,86,0.00,,,0.00,Wunderground v.1.15,2015-08-31 14:12:00,
2015-08-31 10:18:00,76.0,71.5,30.01,West,275,3.0,5.0,86,0.00,,,0.00,Wunderground v.1.15,2015-08-31 14:18:00,
2015-08-31 10:24:00,76.4,71.2,30.01,West,273,4.0,4.0,84,0.00,,,0.00,Wunderground v.1.15,2015-08-31 14:24:00,
2015-08-31 10:30:00,76.9,71.7,30.01,NW,321,4.0,5.0,84,0.00,,,0.00,Wunderground v.1.15,2015-08-31 14:30:00,
2015-08-31 10:36:00,76.9,71.3,30.01,West,263,4.0,6.0,83,0.00,,,0.00,Wunderground v.1.15,2015-08-31 14:36:00,
2015-08-31 10:42:00,77.1,71.5,30.01,West,270,4.0,4.0,83,0.00,,,0.00,Wunderground v.1.15,2015-08-31 14:42:00,
2015-08-31 10:47:00,77.4,71.8,30.01,WSW,244,4.0,6.0,83,0.00,,,0.00,Wunderground v.1.15,2015-08-31 14:47:00,
2015-08-31 10:53:00,77.6,72.4,30.01,SW,221,3.0,5.0,84,0.00,,,0.00,Wunderground v.1.15,2015-08-31 14:53:00,
2015-08-31 10:59:00,77.8,71.9,30.01,West,270,3.0,8.0,82,0.00,,,0.00,Wunderground v.1.15,2015-08-31 14:59:00,
2015-08-31 11:05:00,77.6,71.3,30.01,NNW,331,3.0,6.0,81,0.00,,,0.00,Wunderground v.1.15,2015-08-31 15:05:00,
2015-08-31 11:11:00,77.8,72.2,30.01,West,267,4.0,5.0,83,0.00,,,0.00,Wunderground v.1.15,2015-08-31 15:11:00,
2015-08-31 11:17:00,78.0,71.7,30.01,WSW,240,3.0,7.0,81,0.00,,,0.00,Wunderground v.1.15,2015-08-31 15:17:00,
2015-08-31 11:23:00,77.7,71.4,30.01,SW,230,4.0,4.0,81,0.00,,,0.00,Wunderground v.1.15,2015-08-31 15:23:00,
2015-08-31 11:28:00,77.8,72.2,30.01,West,281,3.0,4.0,83,0.00,,,0.00,Wunderground v.1.15,2015-08-31 15:28:00,
2015-08-31 11:34:00,78.5,72.9,30.01,NW,306,3.0,3.0,83,0.00,,,0.00,Wunderground v.1.15,2015-08-31 15:34:00,
2015-08-31 11:39:00,78.7,72.4,30.01,West,270,3.0,11.0,81,0.00,,,0.00,Wunderground v.1.15,2015-08-31 15:39:00,
2015-08-31 11:44:00,78.8,72.1,30.01,WSW,255,4.0,7.0,80,0.00,,,0.00,Wunderground v.1.15,2015-08-31 15:44:00,
2015-08-31 11:50:00,79.3,72.2,30.01,West,260,4.0,5.0,79,0.00,,,0.00,Wunderground v.1.15,2015-08-31 15:50:00,
2015-08-31 11:55:00,79.6,72.1,30.00,West,273,5.0,9.0,78,0.00,,,0.00,Wunderground v.1.15,2015-08-31 15:55:00,
2015-08-31 12:00:00,79.9,72.4,30.00,WNW,285,5.0,5.0,78,0.00,,,0.00,Wunderground v.1.15,2015-08-31 16:00:00,
2015-08-31 12:05:00,80.2,72.7,30.00,West,269,4.0,7.0,78,0.00,,,0.00,Wunderground v.1.15,2015-08-31 16:05:00,
2015-08-31 12:10:00,80.5,72.2,30.00,NW,316,4.0,4.0,76,0.00,,,0.00,Wunderground v.1.15,2015-08-31 16:10:00,
2015-08-31 12:15:00,80.5,71.8,30.00,West,281,4.0,5.0,75,0.00,,,0.00,Wunderground v.1.15,2015-08-31 16:15:00,
2015-08-31 12:21:00,80.4,72.1,30.00,WSW,254,4.0,8.0,76,0.00,,,0.00,Wunderground v.1.15,2015-08-31 16:21:00,
2015-08-31 12:26:00,80.5,72.2,30.00,West,274,4.0,8.0,76,0.00,,,0.00,Wunderground v.1.15,2015-08-31 16:26:00,
2015-08-31 12:32:00,81.0,73.1,29.99,WSW,252,4.0,9.0,77,0.00,,,0.00,Wunderground v.1.15,2015-08-31 16:32:00,
2015-08-31 12:38:00,81.5,72.4,29.99,West,270,4.0,9.0,74,0.00,,,0.00,Wunderground v.1.15,2015-08-31 16:38:00,
2015-08-31 12:44:00,81.8,73.5,29.99,WSW,237,3.0,4.0,76,0.00,,,0.00,Wunderground v.1.15,2015-08-31 16:44:00,
2015-08-31 12:56:00,82.1,72.2,29.99,WSW,246,4.0,10.0,72,0.00,,,0.00,Wunderground v.1.15,2015-08-31 16:56:00,
2015-08-31 13:01:00,82.3,72.0,29.99,WSW,251,5.0,6.0,71,0.00,,,0.00,Wunderground v.1.15,2015-08-31 17:01:00,
2015-08-31 13:07:00,82.0,71.2,29.99,WSW,247,5.0,10.0,70,0.00,,,0.00,Wunderground v.1.15,2015-08-31 17:07:00,
2015-08-31 13:25:00,81.0,71.5,29.98,NW,323,3.0,5.0,73,0.00,,,0.00,Wunderground v.1.15,2015-08-31 17:25:00,
2015-08-31 13:31:00,81.0,71.5,29.98,WNW,300,3.0,3.0,73,0.00,,,0.00,Wunderground v.1.15,2015-08-31 17:31:00,
2015-08-31 13:43:00,80.5,71.0,29.98,West,262,3.0,3.0,73,0.00,,,0.00,Wunderground v.1.15,2015-08-31 17:43:00,
2015-08-31 13:54:00,80.6,71.1,29.98,West,261,3.0,4.0,73,0.00,,,0.00,Wunderground v.1.15,2015-08-31 17:54:00,
2015-08-31 13:59:00,80.8,71.3,29.98,West,279,3.0,4.0,73,0.00,,,0.00,Wunderground v.1.15,2015-08-31 17:59:00,
2015-08-31 14:05:00,81.4,71.9,29.98,West,262,3.0,6.0,73,0.00,,,0.00,Wunderground v.1.15,2015-08-31 18:05:00,
2015-08-31 14:12:00,82.5,71.7,29.98,SSW,196,4.0,4.0,70,0.00,,,0.00,Wunderground v.1.15,2015-08-31 18:12:00,
2015-08-31 14:18:00,83.1,71.9,29.98,WSW,252,5.0,6.0,69,0.00,,,0.00,Wunderground v.1.15,2015-08-31 18:18:00,
2015-08-31 14:23:00,82.8,71.6,29.98,NW,324,4.0,5.0,69,0.00,,,0.00,Wunderground v.1.15,2015-08-31 18:23:00,
2015-08-31 14:29:00,82.3,71.5,29.98,WSW,245,4.0,6.0,70,0.00,,,0.00,Wunderground v.1.15,2015-08-31 18:29:00,
2015-08-31 14:35:00,81.9,71.2,29.97,WNW,294,3.0,6.0,70,0.00,,,0.00,Wunderground v.1.15,2015-08-31 18:35:00,
2015-08-31 14:41:00,81.8,71.1,29.97,West,280,4.0,4.0,70,0.00,,,0.00,Wunderground v.1.15,2015-08-31 18:41:00,
2015-08-31 14:46:00,81.4,71.9,29.97,NNW,337,3.0,4.0,73,0.00,,,0.00,Wunderground v.1.15,2015-08-31 18:46:00,
2015-08-31 14:52:00,81.3,72.6,29.97,NW,309,2.0,2.0,75,0.00,,,0.00,Wunderground v.1.15,2015-08-31 18:52:00,
2015-08-31 14:59:00,81.7,73.0,29.97,WSW,253,1.0,3.0,75,0.00,,,0.00,Wunderground v.1.15,2015-08-31 18:59:00,
2015-08-31 15:05:00,82.4,72.9,29.97,WNW,299,2.0,3.0,73,0.00,,,0.00,Wunderground v.1.15,2015-08-31 19:05:00,
2015-08-31 15:10:00,82.5,72.6,29.97,North,360,3.0,7.0,72,0.00,,,0.00,Wunderground v.1.15,2015-08-31 19:10:00,
2015-08-31 15:16:00,81.8,72.7,29.97,NNW,331,4.0,7.0,74,0.00,,,0.00,Wunderground v.1.15,2015-08-31 19:16:00,
2015-08-31 15:22:00,81.0,71.9,29.97,WNW,302,4.0,4.0,74,0.00,,,0.00,Wunderground v.1.15,2015-08-31 19:22:00,
2015-08-31 15:28:00,80.6,71.5,29.97,NW,307,2.0,4.0,74,0.00,,,0.00,Wunderground v.1.15,2015-08-31 19:28:00,
2015-08-31 15:33:00,80.6,71.9,29.97,NNW,338,2.0,3.0,75,0.00,,,0.00,Wunderground v.1.15,2015-08-31 19:33:00,
2015-08-31 15:39:00,80.3,71.6,29.97,NW,306,3.0,6.0,75,0.00,,,0.00,Wunderground v.1.15,2015-08-31 19:39:00,
2015-08-31 15:46:00,80.1,71.8,29.97,North,5,2.0,5.0,76,0.00,,,0.00,Wunderground v.1.15,2015-08-31 19:46:00,
2015-08-31 15:52:00,80.0,71.4,29.97,NNW,338,2.0,5.0,75,0.00,,,0.00,Wunderground v.1.15,2015-08-31 19:52:00,
2015-08-31 15:57:00,79.9,71.3,29.97,NNE,17,4.0,9.0,75,0.00,,,0.00,Wunderground v.1.15,2015-08-31 19:57:00,
2015-08-31 16:03:00,79.3,70.7,29.97,North,5,5.0,6.0,75,0.00,,,0.00,Wunderground v.1.15,2015-08-31 20:03:00,
2015-08-31 16:08:00,79.0,70.8,29.97,NNE,28,5.0,6.0,76,0.00,,,0.00,Wunderground v.1.15,2015-08-31 20:08:00,
2015-08-31 16:14:00,79.0,70.8,29.97,North,355,5.0,6.0,76,0.00,,,0.00,Wunderground v.1.15,2015-08-31 20:14:00,
2015-08-31 16:20:00,78.9,70.3,29.97,NNE,15,6.0,8.0,75,0.00,,,0.00,Wunderground v.1.15,2015-08-31 20:20:00,
2015-08-31 16:26:00,78.9,71.5,29.97,NNW,348,5.0,6.0,78,0.00,,,0.00,Wunderground v.1.15,2015-08-31 20:26:00,
2015-08-31 16:32:00,78.9,71.1,29.97,North,350,4.0,4.0,77,0.00,,,0.00,Wunderground v.1.15,2015-08-31 20:32:00,
2015-08-31 16:37:00,78.8,70.2,29.97,North,5,4.0,9.0,75,0.00,,,0.00,Wunderground v.1.15,2015-08-31 20:37:00,
2015-08-31 16:42:00,78.5,69.9,29.97,North,11,5.0,6.0,75,0.00,,,0.00,Wunderground v.1.15,2015-08-31 20:42:00,
2015-08-31 16:48:00,78.4,70.6,29.97,NNE,18,5.0,6.0,77,0.00,,,0.00,Wunderground v.1.15,2015-08-31 20:48:00,
2015-08-31 16:53:00,78.2,70.0,29.97,North,9,4.0,6.0,76,0.00,,,0.00,Wunderground v.1.15,2015-08-31 20:53:00,
2015-08-31 16:58:00,77.9,69.7,29.97,NNE,12,5.0,6.0,76,0.00,,,0.00,Wunderground v.1.15,2015-08-31 20:58:00,
2015-08-31 17:04:00,77.8,70.4,29.97,North,5,4.0,4.0,78,0.00,,,0.00,Wunderground v.1.15,2015-08-31 21:04:00,
2015-08-31 17:09:00,77.8,70.4,29.97,NNW,331,3.0,5.0,78,0.00,,,0.00,Wunderground v.1.15,2015-08-31 21:09:00,
2015-08-31 17:15:00,77.9,70.5,29.97,NNW,340,1.0,2.0,78,0.00,,,0.00,Wunderground v.1.15,2015-08-31 21:15:00,
2015-08-31 17:21:00,78.0,70.6,29.97,NW,325,2.0,2.0,78,0.00,,,0.00,Wunderground v.1.15,2015-08-31 21:21:00,
2015-08-31 17:27:00,77.9,70.1,29.97,NNW,329,2.0,3.0,77,0.00,,,0.00,Wunderground v.1.15,2015-08-31 21:27:00,
2015-08-31 17:32:00,77.9,70.5,29.97,NNW,335,1.0,1.0,78,0.00,,,0.00,Wunderground v.1.15,2015-08-31 21:32:00,
2015-08-31 17:38:00,77.8,70.0,29.97,NNE,17,1.0,3.0,77,0.00,,,0.00,Wunderground v.1.15,2015-08-31 21:38:00,
2015-08-31 17:44:00,77.8,70.0,29.97,NW,311,1.0,1.0,77,0.00,,,0.00,Wunderground v.1.15,2015-08-31 21:44:00,
2015-08-31 17:50:00,77.6,69.8,29.97,NNW,338,1.0,1.0,77,0.00,,,0.00,Wunderground v.1.15,2015-08-31 21:50:00,
2015-08-31 17:56:00,77.5,69.7,29.97,NNE,12,1.0,3.0,77,0.00,,,0.00,Wunderground v.1.15,2015-08-31 21:56:00,
2015-08-31 18:02:00,77.4,69.6,29.97,North,9,1.0,3.0,77,0.00,,,0.00,Wunderground v.1.15,2015-08-31 22:02:00,
2015-08-31 18:08:00,77.3,69.5,29.97,North,360,1.0,3.0,77,0.00,,,0.00,Wunderground v.1.15,2015-08-31 22:08:00,
2015-08-31 18:13:00,77.3,69.1,29.97,North,355,2.0,4.0,76,0.00,,,0.00,Wunderground v.1.15,2015-08-31 22:13:00,
2015-08-31 18:19:00,77.3,69.5,29.97,NNE,15,2.0,4.0,77,0.00,,,0.00,Wunderground v.1.15,2015-08-31 22:19:00,
2015-08-31 18:25:00,77.3,69.5,29.97,NNE,15,1.0,2.0,77,0.00,,,0.00,Wunderground v.1.15,2015-08-31 22:25:00,
2015-08-31 18:29:00,77.3,69.5,29.97,NNE,15,0.0,2.0,77,0.00,,,0.00,Wunderground v.1.15,2015-08-31 22:29:00,
2015-08-31 18:34:00,77.3,69.5,29.97,NNE,15,0.0,0.0,77,0.00,,,0.00,Wunderground v.1.15,2015-08-31 22:34:00,
2015-08-31 18:36:00,77.3,69.5,29.97,NNE,15,0.0,0.0,77,0.00,,,0.00,Wunderground v.1.15,2015-08-31 22:36:00,
2015-08-31 18:37:00,77.3,69.5,29.97,NNE,15,0.0,0.0,77,0.00,,,0.00,Wunderground v.1.15,2015-08-31 22:37:00,
2015-08-31 18:43:00,77.3,69.5,29.97,NNE,15,0.0,0.0,77,0.00,,,0.00,Wunderground v.1.15,2015-08-31 22:43:00,
2015-08-31 18:49:00,77.3,69.5,29.97,NNE,15,0.0,0.0,77,0.00,,,0.00,Wunderground v.1.15,2015-08-31 22:49:00,
2015-08-31 18:54:00,77.2,69.4,29.97,NNE,15,0.0,0.0,77,0.00,,,0.00,Wunderground v.1.15,2015-08-31 22:54:00,
2015-08-31 19:03:00,77.1,69.3,29.98,NNE,15,0.0,0.0,77,0.00,,,0.00,Wunderground v.1.15,2015-08-31 23:03:00,
2015-08-31 19:09:00,77.0,69.2,29.98,NNE,15,0.0,0.0,77,0.00,,,0.00,Wunderground v.1.15,2015-08-31 23:09:00,
2015-08-31 19:15:00,76.8,69.4,29.98,NNE,15,0.0,0.0,78,0.00,,,0.00,Wunderground v.1.15,2015-08-31 23:15:00,
2015-08-31 19:21:00,76.6,69.2,29.98,NNE,15,0.0,0.0,78,0.00,,,0.00,Wunderground v.1.15,2015-08-31 23:21:00,
2015-08-31 19:27:00,76.2,68.8,29.98,NNE,15,0.0,0.0,78,0.00,,,0.00,Wunderground v.1.15,2015-08-31 23:27:00,
2015-08-31 19:33:00,75.9,68.9,29.98,NNE,15,0.0,0.0,79,0.00,,,0.00,Wunderground v.1.15,2015-08-31 23:33:00,
2015-08-31 19:38:00,75.6,69.0,29.98,NNE,15,0.0,0.0,80,0.00,,,0.00,Wunderground v.1.15,2015-08-31 23:38:00,
2015-08-31 19:43:00,75.3,69.1,29.98,NNE,15,0.0,0.0,81,0.00,,,0.00,Wunderground v.1.15,2015-08-31 23:43:00,
2015-08-31 19:49:00,74.7,68.8,29.98,NNE,15,0.0,0.0,82,0.00,,,0.00,Wunderground v.1.15,2015-08-31 23:49:00,
2015-08-31 19:54:00,74.2,68.3,29.98,NNE,15,0.0,0.0,82,0.00,,,0.00,Wunderground v.1.15,2015-08-31 23:54:00,